FW6569 Weather Reports


time (UTC)temp
F
wind
direction
speed
knots
gust
knots
rain 1hr
in
rain 24hr
in
rain mn
in
humidity
%
barometer
mb
20220627195028 82 31 3.5 5.2 0.00 0.35 0.00 46 1022.6
20220627194026 82 53 2.6 4.3 0.00 0.35 0.00 47 1022.7
20220627193023 81 262 3.5 7.0 0.00 0.35 0.00 47 1022.7
20220627192022 81 248 3.5 6.1 0.00 0.35 0.00 47 1022.8
20220627191019 81 356 4.3 8.7 0.00 0.35 0.00 47 1022.9
20220627190022 81 226 3.5 8.7 0.00 0.35 0.00 48 1023.0
20220627185025 81 303 3.5 6.1 0.00 0.35 0.00 48 1023.0
20220627184019 80 208 3.5 5.2 0.00 0.35 0.00 49 1023.2
20220627183019 79 190 3.5 6.1 0.00 0.35 0.00 50 1023.3
20220627182026 80 238 3.5 6.1 0.00 0.35 0.00 51 1023.3
20220627181022 80 305 3.5 4.3 0.00 0.35 0.00 51 1023.4
20220627180026 81 19 2.6 5.2 0.00 0.35 0.00 52 1023.5
20220627175019 80 104 4.3 5.2 0.00 0.35 0.00 52 1023.6
20220627174022 78 26 4.3 7.0 0.00 0.35 0.00 52 1023.8
20220627173028 79 18 3.5 5.2 0.00 0.35 0.00 52 1023.9
20220627172024 79 351 5.2 7.8 0.00 0.35 0.00 52 1024.0
20220627171027 78 139 2.6 6.1 0.00 0.35 0.00 53 1024.0
20220627170020 80 26 5.2 7.0 0.00 0.35 0.00 53 1024.1
20220627165023 79 247 3.5 5.2 0.00 0.35 0.00 53 1024.1
20220627164021 77 10 4.3 6.1 0.00 0.35 0.00 52 1024.2
20220627163021 79 27 5.2 6.1 0.00 0.35 0.00 53 1024.2
20220627162022 78 29 3.5 5.2 0.00 0.35 0.00 53 1024.3
20220627161023 77 352 4.3 7.8 0.00 0.35 0.00 52 1024.2
20220627160025 77 6 3.5 6.1 0.00 0.35 0.00 52 1024.2
20220627155021 76 25 3.5 5.2 0.00 0.35 0.00 52 1024.2
20220627154024 76 4 4.3 8.7 0.00 0.35 0.00 52 1024.1
20220627153022 76 5 6.1 9.6 0.00 0.35 0.00 53 1024.1
20220627152021 77 6 6.1 7.8 0.00 0.35 0.00 53 1024.0
20220627151019 76 20 4.3 6.1 0.00 0.35 0.00 54 1024.1
20220627150022 76 27 5.2 7.8 0.00 0.35 0.00 54 1024.1
20220627145019 76 21 5.2 7.0 0.00 0.35 0.00 54 1024.1
20220627144020 75 23 5.2 7.8 0.00 0.35 0.00 55 1024.1
20220627143022 75 25 5.2 7.0 0.00 0.35 0.00 57 1024.1
20220627142019 75 10 4.3 6.1 0.00 0.35 0.00 58 1024.1
20220627141021 74 0 5.2 7.0 0.00 0.35 0.00 58 1024.0
20220627140019 74 20 6.1 8.7 0.00 0.35 0.00 59 1023.9
20220627135019 73 2 6.1 7.8 0.00 0.35 0.00 61 1023.9
20220627134023 74 31 6.1 7.8 0.00 0.35 0.00 64 1023.9
20220627133020 73 30 3.5 4.3 0.00 0.35 0.00 66 1023.8
20220627132023 72 7 4.3 6.1 0.00 0.35 0.00 68 1023.8
20220627131027 72 16 5.2 7.0 0.00 0.35 0.00 70 1023.7
20220627130023 71 22 5.2 6.1 0.00 0.35 0.00 72 1023.6
20220627125024 71 8 3.5 6.1 0.00 0.35 0.00 74 1023.5
20220627124021 70 3 2.6 4.3 0.00 0.35 0.00 76 1023.3
20220627123024 69 10 4.3 5.2 0.00 0.35 0.00 78 1023.2
20220627122024 69 20 2.6 3.5 0.00 0.35 0.00 80 1023.0
20220627121021 68 25 1.7 2.6 0.00 0.35 0.00 83 1023.0
20220627120027 67 28 2.6 2.6 0.00 0.35 0.00 86 1023.0
20220627115022 66 12 0.9 2.6 0.00 0.35 0.00 90 1022.8
20220627114025 64 5 1.7 2.6 0.00 0.35 0.00 93 1022.6
20220627113020 61 349 0.9 3.5 0.00 0.35 0.00 93 1022.4
20220627112022 60 0.0 0.0 0.00 0.35 0.00 93 1022.3
20220627111019 58 0.0 0.0 0.00 0.35 0.00 92 1022.2
20220627110022 58 0.0 0.0 0.00 0.35 0.00 92 1022.2
20220627105021 58 0.0 0.0 0.00 0.35 0.00 92 1022.1
20220627104019 58 0.0 0.0 0.00 0.35 0.00 91 1022.0
20220627103025 58 0.0 0.0 0.00 0.35 0.00 91 1021.9
20220627102022 58 0.0 0.0 0.00 0.35 0.00 91 1021.8
20220627101021 58 0.0 0.0 0.00 0.35 0.00 91 1021.5
20220627100029 58 0.0 0.0 0.00 0.35 0.00 91 1021.4
20220627095020 58 0.0 0.0 0.00 0.35 0.00 90 1021.3
20220627094023 58 0.0 0.0 0.00 0.35 0.00 90 1021.3
20220627093021 58 0.0 0.0 0.00 0.35 0.00 90 1021.2
20220627092024 59 0.0 0.0 0.00 0.35 0.00 90 1021.1
20220627091020 59 0.0 0.0 0.00 0.35 0.00 90 1021.0
20220627090022 59 0.0 0.0 0.00 0.35 0.00 90 1020.9
20220627085024 59 0.0 0.0 0.00 0.35 0.00 90 1020.8
20220627084021 59 0.0 0.0 0.00 0.35 0.00 90 1020.7
20220627083025 59 0.0 0.0 0.00 0.35 0.00 89 1020.6
20220627082028 60 0.0 0.0 0.00 0.35 0.00 88 1020.6
20220627081031 60 0.0 0.0 0.00 0.35 0.00 88 1020.6
20220627080018 61 0.0 0.0 0.00 0.35 0.00 87 1020.6
20220627075022 61 0.0 0.0 0.00 0.35 0.00 86 1020.5
20220627074025 61 0.0 0.0 0.00 0.35 0.00 85 1020.5
20220627073021 62 0.0 0.0 0.00 0.35 0.00 84 1020.5
20220627072022 63 0.0 0.0 0.00 0.35 0.00 84 1020.5
20220627071021 63 332 0.9 1.7 0.00 0.35 0.00 84 1020.5
20220627070023 63 243 0.0 1.7 0.00 0.35 0.00 84 1020.5
20220627065026 63 323 0.9 2.6 0.00 0.35 0.00 84 1020.4
20220627064019 63 11 0.9 2.6 0.00 0.35 0.00 83 1020.4
20220627063027 63 0.0 0.0 0.00 0.35 0.00 83 1020.4
20220627062020 63 0.0 1.7 0.00 0.35 0.00 82 1020.4
20220627061023 64 325 0.9 1.7 0.00 0.35 0.00 81 1020.5
20220627060019 64 248 0.0 1.7 0.00 0.35 0.00 81 1020.6
20220627055020 65 203 0.0 0.9 0.00 0.35 0.00 80 1020.7
20220627054023 65 238 0.9 1.7 0.00 0.35 0.00 79 1020.7
20220627053021 66 245 0.9 2.6 0.00 0.35 0.00 79 1020.6
20220627052021 66 233 0.9 1.7 0.00 0.35 0.00 79 1020.5
20220627051023 66 63 0.9 2.6 0.00 0.35 0.00 78 1020.5
20220627050024 66 0.0 0.9 0.00 0.35 0.00 77 1020.5
20220627045021 66 161 0.9 1.7 0.00 0.35 0.00 77 1020.5
20220627044022 67 338 0.0 1.7 0.00 0.35 0.00 76 1020.5
20220627043025 68 243 0.0 1.7 0.00 0.35 0.00 76 1020.5
20220627042034 68 63 0.0 2.6 0.00 0.35 0.00 75 1020.4
20220627041022 69 37 0.9 1.7 0.00 0.35 0.00 75 1020.3
20220627040019 69 83 0.0 1.7 0.00 0.35 0.00 75 1020.3
20220627035022 70 358 1.7 5.2 0.00 0.35 0.35 75 1020.2
20220627034019 70 285 1.7 3.5 0.00 0.35 0.35 75 1020.1
20220627033021 71 276 1.7 3.5 0.00 0.35 0.35 76 1020.1
20220627032019 71 8 1.7 5.2 0.00 0.35 0.35 76 1019.9
20220627031020 72 82 1.7 3.5 0.00 0.35 0.35 77 1019.9
20220627030025 72 316 2.6 4.3 0.00 0.35 0.35 78 1019.8
20220627025026 72 38 1.7 3.5 0.00 0.35 0.35 78 1019.7
20220627024020 73 317 1.7 3.5 0.00 0.35 0.35 79 1019.7
20220627023026 73 8 2.6 4.3 0.00 0.35 0.35 80 1019.6
20220627022020 73 60 2.6 5.2 0.00 0.35 0.35 82 1019.5
20220627021023 74 45 1.7 5.2 0.00 0.35 0.35 83 1019.1
20220627020019 74 136 0.9 2.6 0.00 0.35 0.35 84 1019.0
20220627015020 75 1 1.7 3.5 0.00 0.35 0.35 84 1018.8
20220627014021 76 149 1.7 3.5 0.00 0.35 0.35 85 1018.8
20220627013022 77 331 0.9 3.5 0.00 0.35 0.35 86 1018.5
20220627012024 77 156 2.6 5.2 0.00 0.35 0.35 89 1018.4
20220627011028 78 241 2.6 4.3 0.00 0.35 0.35 89 1018.1
20220627010021 79 315 0.0 0.9 0.00 0.35 0.35 89 1017.9
20220627005024 79 211 2.6 3.5 0.00 0.35 0.35 90 1017.9
20220627004022 80 224 0.9 2.6 0.00 0.35 0.35 90 1017.7
20220627003025 79 283 0.0 1.7 0.00 0.35 0.35 90 1017.5
20220627002029 79 248 0.0 0.9 0.00 0.35 0.35 90 1017.5
20220627001022 79 238 0.9 1.7 0.00 0.35 0.35 89 1017.3
20220627000019 79 242 0.9 1.7 0.00 0.35 0.35 88 1017.1
20220626235022 79 214 0.9 2.6 0.00 0.35 0.35 87 1017.1
20220626234026 80 253 0.9 2.6 0.00 0.35 0.35 87 1017.0
20220626233024 80 0.0 0.0 0.00 0.35 0.35 87 1016.9
20220626232019 80 262 0.9 1.7 0.00 0.35 0.35 87 1016.8
20220626231019 80 270 0.0 1.7 0.00 0.35 0.35 86 1016.7
20220626230024 80 220 0.9 1.7 0.00 0.35 0.35 83 1016.6
20220626225032 82 253 0.9 2.6 0.00 0.35 0.35 83 1016.5
20220626224020 82 234 1.7 2.6 0.00 0.35 0.35 83 1016.5
20220626223026 82 270 0.9 1.7 0.00 0.35 0.35 83 1016.7
20220626222023 82 281 0.9 2.6 0.00 0.35 0.35 85 1016.9
20220626221024 81 184 1.7 2.6 0.00 0.35 0.35 85 1016.9
20220626220020 81 326 0.9 1.7 0.01 0.35 0.35 87 1017.0
20220626215021 81 262 1.7 2.6 0.05 0.35 0.35 88 1017.2
20220626214024 80 261 0.9 2.6 0.35 0.35 0.35 88 1017.1
20220626213021 80 235 1.7 2.6 0.35 0.35 0.35 90 1017.4
20220626212031 77 207 0.9 2.6 0.35 0.35 0.35 89 1017.5
20220626211028 78 0.0 0.0 0.35 0.35 0.35 86 1017.6
20220626210024 77 6 1.7 3.5 0.34 0.34 0.34 84 1017.6
20220626205022 78 210 2.6 7.0 0.30 0.30 0.30 78 1017.9
20220626204019 82 327 1.7 5.2 0.00 0.00 0.00 74 1017.7
20220626203025 82 206 3.5 5.2 0.00 0.00 0.00 73 1017.5
20220626202019 82 238 4.3 6.1 0.00 0.00 0.00 72 1017.7
20220626201022 83 197 6.1 7.8 0.00 0.00 0.00 72 1017.5
20220626200021 84 201 6.1 7.8 0.00 0.00 0.00 72 1017.4